| time (UTC) | temp F | wind direction | speed MPH | gust MPH | rain 1hr in | rain 24hr in | rain mn in | humidity % | barometer mb |
| 20260505102041 | 52 | 0 | 0.0 | 0.0 | 0.00 | 0.09 | 0.07 | 98 | 1014.3 |
| 20260505101021 | 52 | 0 | 0.0 | 0.0 | 0.00 | 0.09 | 0.07 | 98 | 1014.3 |
| 20260505095044 | 52 | 0 | 0.0 | 0.0 | 0.01 | 0.09 | 0.07 | 99 | 1014.3 |
| 20260505094038 | 52 | 0 | 0.0 | 0.0 | 0.01 | 0.09 | 0.07 | 99 | 1014.3 |
| 20260505093039 | 52 | 0 | 0.0 | 0.0 | 0.01 | 0.09 | 0.07 | 99 | 1014.3 |
| 20260505092035 | 51 | 0 | 0.0 | 0.0 | 0.01 | 0.09 | 0.07 | 99 | 1014.3 |
| 20260505091044 | 51 | 0 | 0.0 | 0.0 | 0.01 | 0.09 | 0.07 | 99 | 1014.3 |
| 20260505090038 | 51 | 0 | 0.0 | 0.0 | 0.01 | 0.09 | 0.07 | 99 | 1014.3 |
| 20260505084039 | 51 | 0 | 0.0 | 0.0 | 0.01 | 0.08 | 0.06 | 99 | 1014.3 |
| 20260505083021 | 52 | 0 | 0.0 | 0.0 | 0.01 | 0.08 | 0.06 | 99 | 1014.4 |
| 20260505080030 | 52 | 0 | 0.0 | 0.0 | 0.02 | 0.08 | 0.06 | 98 | 1014.4 |
| 20260505075033 | 52 | 0 | 0.0 | 0.0 | 0.02 | 0.08 | 0.06 | 99 | 1014.5 |
| 20260505074022 | 52 | 0 | 0.0 | 0.0 | 0.03 | 0.08 | 0.06 | 99 | 1014.4 |
| 20260505073032 | 52 | 0 | 0.0 | 0.0 | 0.03 | 0.07 | 0.06 | 98 | 1014.4 |
| 20260505072034 | 53 | 0 | 0.0 | 0.0 | 0.03 | 0.07 | 0.06 | 99 | 1014.4 |
| 20260505071037 | 52 | 0 | 0.0 | 0.0 | 0.03 | 0.07 | 0.06 | 99 | 1014.5 |
| 20260505070038 | 52 | 0 | 0.0 | 0.0 | 0.02 | 0.06 | 0.05 | 99 | 1014.6 |
| 20260505065040 | 52 | 0 | 0.0 | 0.0 | 0.02 | 0.06 | 0.05 | 99 | 1014.6 |
| 20260505064027 | 52 | 0 | 0.0 | 0.0 | 0.02 | 0.06 | 0.04 | 99 | 1014.6 |
| 20260505062023 | 53 | 0 | 0.0 | 0.0 | 0.01 | 0.04 | 0.02 | 98 | 1014.6 |
| 20260505061021 | 53 | 0 | 0.0 | 0.0 | 0.01 | 0.04 | 0.02 | 98 | 1014.6 |
| 20260505060030 | 53 | 0 | 0.0 | 0.0 | 0.02 | 0.04 | 0.02 | 98 | 1014.5 |
| 20260505055041 | 53 | 0 | 0.0 | 0.0 | 0.02 | 0.04 | 0.02 | 98 | 1014.5 |
| 20260505054022 | 53 | 0 | 0.0 | 0.0 | 0.02 | 0.04 | 0.02 | 99 | 1014.5 |
| 20260505053031 | 53 | 0 | 0.0 | 0.0 | 0.02 | 0.04 | 0.02 | 99 | 1014.5 |
| 20260505052039 | 52 | 0 | 0.0 | 0.0 | 0.02 | 0.04 | 0.02 | 99 | 1014.5 |
| 20260505041039 | 52 | 0 | 0.0 | 0.0 | 0.00 | 0.02 | 0.00 | 98 | 1014.7 |
| 20260505040037 | 52 | 0 | 0.0 | 0.0 | 0.00 | 0.02 | 0.00 | 98 | 1014.8 |
| 20260505034039 | 52 | 0 | 0.0 | 0.0 | 0.00 | 0.02 | 0.00 | 98 | 1014.9 |
| 20260505033043 | 52 | 0 | 0.0 | 0.0 | 0.00 | 0.02 | 0.00 | 98 | 1015.0 |
| 20260505032023 | 52 | 0 | 0.0 | 0.0 | 0.00 | 0.02 | 0.00 | 98 | 1015.1 |
| 20260505031040 | 52 | 0 | 0.0 | 0.0 | 0.00 | 0.02 | 0.00 | 98 | 1015.3 |
| 20260505025037 | 52 | 0 | 0.0 | 0.0 | 0.00 | 0.02 | 0.00 | 98 | 1015.5 |
| 20260505024041 | 52 | 0 | 0.0 | 0.0 | 0.00 | 0.02 | 0.00 | 98 | 1015.5 |
| 20260505023043 | 52 | 0 | 0.0 | 0.0 | 0.00 | 0.02 | 0.00 | 98 | 1015.4 |
| 20260505022040 | 52 | 0 | 0.0 | 0.0 | 0.00 | 0.02 | 0.00 | 98 | 1015.4 |
| 20260505021042 | 52 | 0 | 0.0 | 0.0 | 0.00 | 0.02 | 0.00 | 98 | 1015.5 |
| 20260505020043 | 52 | 0 | 0.0 | 0.0 | 0.00 | 0.02 | 0.00 | 98 | 1015.4 |
| 20260505015041 | 52 | 0 | 0.0 | 0.0 | 0.00 | 0.02 | 0.00 | 98 | 1015.4 |
| 20260505014039 | 52 | 0 | 0.0 | 0.0 | 0.00 | 0.02 | 0.00 | 98 | 1015.4 |
| 20260505013039 | 52 | 0 | 0.0 | 0.0 | 0.00 | 0.02 | 0.00 | 98 | 1015.4 |
| 20260505012043 | 51 | 0 | 0.0 | 0.0 | 0.00 | 0.02 | 0.00 | 98 | 1015.4 |
| 20260505010032 | 51 | 0 | 0.0 | 0.0 | 0.00 | 0.02 | 0.00 | 98 | 1015.5 |
| 20260505005038 | 51 | 0 | 0.0 | 0.0 | 0.00 | 0.02 | 0.00 | 98 | 1015.6 |
| 20260505004040 | 51 | 0 | 0.0 | 0.0 | 0.00 | 0.02 | 0.00 | 98 | 1015.7 |
| 20260505003041 | 51 | 0 | 0.0 | 0.0 | 0.00 | 0.02 | 0.00 | 98 | 1015.8 |
| 20260505002039 | 51 | 0 | 0.0 | 0.0 | 0.00 | 0.02 | 0.00 | 98 | 1016.0 |
| 20260505001042 | 51 | 0 | 0.0 | 0.0 | 0.00 | 0.02 | 0.00 | 98 | 1016.1 |
| 20260505000047 | 51 | 0 | 0.0 | 0.0 | 0.00 | 0.02 | 0.00 | 98 | 1016.2 |
| 20260504235045 | 50 | 0 | 0.0 | 0.0 | 0.00 | 0.02 | 0.00 | 98 | 1016.2 |
| 20260504233043 | 50 | 0 | 0.0 | 0.0 | 0.00 | 0.02 | 0.00 | 98 | 1016.5 |
| 20260504232044 | 50 | 0 | 0.0 | 0.0 | 0.00 | 0.02 | 0.00 | 98 | 1016.5 |
| 20260504231046 | 50 | 0 | 0.0 | 0.0 | 0.00 | 0.02 | 0.00 | 98 | 1016.6 |
| 20260504224046 | 49 | 0 | 0.0 | 0.0 | 0.00 | 0.02 | 0.00 | 98 | 1016.8 |
| 20260504223047 | 49 | 0 | 0.0 | 0.0 | 0.00 | 0.02 | 0.00 | 98 | 1016.9 |
| 20260504221046 | 49 | 0 | 0.0 | 0.0 | 0.00 | 0.02 | 0.00 | 97 | 1017.1 |
| 20260504220043 | 49 | 0 | 0.0 | 0.0 | 0.00 | 0.02 | 0.00 | 97 | 1017.2 |
| 20260504215046 | 49 | 0 | 0.0 | 0.0 | 0.00 | 0.02 | 0.02 | 97 | 1017.2 |
| 20260504214049 | 50 | 0 | 0.0 | 0.0 | 0.00 | 0.02 | 0.02 | 97 | 1017.3 |
| 20260504213047 | 49 | 0 | 0.0 | 0.0 | 0.00 | 0.02 | 0.02 | 97 | 1017.4 |
| 20260504212049 | 49 | 0 | 0.0 | 0.0 | 0.00 | 0.02 | 0.02 | 96 | 1017.5 |
| 20260504211046 | 50 | 0 | 0.0 | 0.0 | 0.00 | 0.02 | 0.02 | 96 | 1017.4 |
| 20260504210049 | 50 | 0 | 0.0 | 0.0 | 0.00 | 0.02 | 0.02 | 96 | 1017.5 |
| 20260504205046 | 50 | 0 | 0.0 | 0.0 | 0.00 | 0.02 | 0.02 | 96 | 1017.5 |
| 20260504203049 | 50 | 0 | 0.0 | 0.0 | 0.00 | 0.02 | 0.02 | 95 | 1017.6 |
| 20260504202057 | 50 | 0 | 0.0 | 0.0 | 0.00 | 0.02 | 0.02 | 95 | 1017.6 |
| 20260504200051 | 51 | 0 | 0.0 | 0.0 | 0.00 | 0.02 | 0.02 | 94 | 1017.5 |
| 20260504194049 | 52 | 0 | 0.0 | 0.0 | 0.00 | 0.02 | 0.02 | 93 | 1017.2 |
| 20260504193045 | 53 | 0 | 0.0 | 0.0 | 0.00 | 0.02 | 0.02 | 93 | 1017.1 |
| 20260504192049 | 53 | 0 | 0.0 | 0.0 | 0.00 | 0.02 | 0.02 | 93 | 1016.9 |
| 20260504191046 | 53 | 0 | 0.0 | 0.0 | 0.00 | 0.02 | 0.02 | 93 | 1016.9 |
| 20260504190049 | 54 | 0 | 0.0 | 0.0 | 0.00 | 0.02 | 0.02 | 93 | 1016.9 |
| 20260504185051 | 54 | 0 | 0.0 | 0.0 | 0.00 | 0.02 | 0.02 | 92 | 1016.8 |
| 20260504183045 | 55 | 0 | 0.0 | 0.0 | 0.00 | 0.02 | 0.02 | 91 | 1016.5 |
| 20260504182047 | 56 | 0 | 0.0 | 0.0 | 0.00 | 0.02 | 0.02 | 90 | 1016.5 |
| 20260504181047 | 56 | 0 | 0.0 | 0.0 | 0.00 | 0.02 | 0.02 | 89 | 1016.5 |
| 20260504180047 | 56 | 0 | 0.0 | 0.0 | 0.00 | 0.02 | 0.02 | 88 | 1016.6 |
| 20260504175046 | 56 | 0 | 0.0 | 0.0 | 0.00 | 0.02 | 0.02 | 88 | 1016.6 |
| 20260504174046 | 56 | 0 | 0.0 | 0.0 | 0.00 | 0.02 | 0.02 | 88 | 1016.7 |
| 20260504173049 | 57 | 0 | 0.0 | 0.0 | 0.00 | 0.02 | 0.02 | 89 | 1016.7 |
| 20260504172044 | 57 | 0 | 0.0 | 0.0 | 0.00 | 0.02 | 0.02 | 89 | 1016.7 |
| 20260504171047 | 57 | 0 | 0.0 | 0.0 | 0.00 | 0.02 | 0.02 | 89 | 1016.7 |
| 20260504141040 | 58 | 0 | 0.0 | 0.0 | 0.02 | 0.02 | 0.02 | 89 | 1017.3 |